Location: Unspecified
(0.0000°N, 0.0000°E)
Time: 20:08:54
(UTC+00:00)

DMSP 5D-2 F13 DEB - Pass Details

Date: 14 February 2026
Orbit: 782 x 824 km, 98.9° (Epoch: 12 March)

Event Time Altitude Azimuth Distance (km) Brightness Sun altitude
Rises 18:32:10 0° 145° (SE) 3,279 ? -4.4°
Reaches altitude 10° 18:34:52 10° 132° (SE) 2,343 ? -5.0°
Maximum altitude 18:39:04 25° 77° (ENE) 1,520 ? -6.1°
Drops below altitude 10° 18:43:14 10° 22° (NNE) 2,327 ? -7.1°
Sets 18:45:53 0° 10° (N) 3,252 ? -7.7°
